Regional Weather Roundup
Issued by NWS Northern Indiana

Home | Current Version | Previous Version | Graphics & Text | Print | Product List | Glossary On
Versions: 1 2 3 4 5 6 7 8 9 10 11 12 13 14 15 16 17 18 19 20 21 22 23 24 25 26 27 28 29 30 31 32 33 34 35 36 37 38 39 40 41 42 43 44 45 46 47 48 49 50
000
ASUS43 KIWX 230000
RWRIWX

KIWX WEATHER ROUNDUP
NATIONAL WEATHER SERVICE NORTHERN INDIANA
800 PM EDT FRI JUL 22 2016

NOTE: "FAIR" INDICATES FEW OR NO CLOUDS BELOW 12,000 FEET WITH NO
SIGNIFICANT WEATHER AND/OR OBSTRUCTIONS TO VISIBILITY.

* THESE STATIONS ARE NOT UNDER NWS QUALITY CONTROL. THEY ALSO MAY NOT
  REPORT WEATHER SUCH AS PRECIPITATION OR FOG.

INZ001>027-230100-
NORTHERN INDIANA

CITY           SKY/WX    TMP DP  RH WIND       PRES   REMARKS
GARY*          MOSUNNY   90  81  74 W7        29.97S HX 108
KNOX*          PTSUNNY   82  64  54 W3        29.99R
SOUTH BEND     SUNNY     84  70  62 NW5       29.99S
6HR MIN TEMP:  83; 6HR MAX TEMP:  86;

ELKHART*       SUNNY     84  73  70 W9        29.99R
GOSHEN         SUNNY     86  68  54 W9        29.98R
6HR MIN TEMP:  86; 6HR MAX TEMP:  89;

MONTICELLO*    SUNNY     82  70  65 W5        29.98F
6HR MIN TEMP:  82; 6HR MAX TEMP:  86;

ANGOLA*          N/A     88  82  84 W5        29.97F HX 108
FORT WAYNE     MOSUNNY   85  71  63 W6        29.97S
6HR MIN TEMP:  85; 6HR MAX TEMP:  89;

PERU/GRISSOM   SUNNY     85  73  68 W8        29.98R
6HR MIN TEMP:  85; 6HR MAX TEMP:  88;


$$
INZ028>050-230100-
CENTRAL INDIANA

CITY           SKY/WX    TMP DP  RH WIND       PRES   REMARKS
LAFAYETTE      SUNNY     84  73  69 W6        29.98S
6HR MIN TEMP:  83; 6HR MAX TEMP:  87;

KOKOMO*        SUNNY     84  72  65 W9        29.99R
6HR MIN TEMP:  84; 6HR MAX TEMP:  90;

MUNCIE*        SUNNY     86  71  60 NW6       29.99R
6HR MIN TEMP:  85; 6HR MAX TEMP:  89;

INDIANAPOLIS   MOSUNNY   86  67  52 NW9       29.99S
6HR MIN TEMP:  86; 6HR MAX TEMP:  90; 6HR PCP: TRACE;


$$
MIZ043>046-050>051-056>058-064>065-071>073-077>080-230100-
SOUTHWEST LOWER MICHIGAN

CITY           SKY/WX    TMP DP  RH WIND       PRES   REMARKS
BATTLE CREEK   SUNNY     83  70  64 W9        29.98R
6HR MIN TEMP:  83; 6HR MAX TEMP:  86;

BENTON HARBOR  SUNNY     82  68  62 W5        29.98R
6HR MIN TEMP:  81; 6HR MAX TEMP:  85;

COLDWATER*     SUNNY     86  69  57 W5        29.97S
6HR MIN TEMP:  85; 6HR MAX TEMP:  89;

HOLLAND        SUNNY     79  69  71 W6        29.98S
6HR MIN TEMP:  79; 6HR MAX TEMP:  83;

GRAND RAPIDS   MOSUNNY   83  68  60 W9        29.97S
6HR MIN TEMP:  83; 6HR MAX TEMP:  87;

KALAMAZOO      SUNNY     85  69  58 W5        29.98R
6HR MIN TEMP:  85; 6HR MAX TEMP:  89;

STURGIS*       SUNNY     85  70  61 NW5       29.97S
6HR MIN TEMP:  85; 6HR MAX TEMP:  89;

THREE RIVERS*  FAIR      86  68  55 W6        29.98R

$$
OHZ001>008-015>018-024>025-230100-
NORTHWEST OHIO

CITY           SKY/WX    TMP DP  RH WIND       PRES   REMARKS
DEFIANCE       SUNNY     89  72  56 SW3       29.95S HX  96
6HR MIN TEMP:  88; 6HR MAX TEMP:  92;

FINDLAY        CLEAR     88  69  53 SW6       29.95R
6HR MIN TEMP:  87; 6HR MAX TEMP:  93;

TOLEDO EXPRESS CLEAR     88  73  61 NW6       29.94S HX  95
6HR MIN TEMP:  87; 6HR MAX TEMP:  91;

TOLEDO METCALF CLEAR     90  71  53 NW9       29.94S HX  96
6HR MIN TEMP:  90; 6HR MAX TEMP:  93;

LIMA           CLEAR     85  73  67 SW9       29.97R
6HR MIN TEMP:  85; 6HR MAX TEMP:  90;


$$
AND FOR LAKE MICHIGAN COASTAL AND OPEN LAKE BUOY OBSERVATIONS

STATION/POSITION TEMP    WIND        PRES    VSBY  WAVE
                 AIR SEA DIR/SP/G                  HT/PER
                 (F)     (DEG/KT/KT) (MB)    (MI)  (FT/S)
CALUMET HARBOR            50/  6/  7   N/A
MICHIGAN CITY     80      10/  4/  5   N/A
BURNS HARBOR      83      80/  6/  6 1015.2F
SAINT JOSEPH      85     220/  3/  4 1015.9F
SOUTH LAKE BUOY   76 75  170/  4/  6 1014.0          0
4 MI NW BRIDGMAN  78 76  200/  2/  2 1014.6F         1
MICHIGAN CITY     81 79   40/  4/  4   N/A           1

$$
&&



USA.gov is the U.S. government's official web portal to all federal, state and local government web resources and services.